Temperature
20 20 20 20 20 19 19 19 19 19 19 19 19 18 18 18 18 18 18 18 18 17 17 17 17 17 17 17 17 17 17 17 17 17 17 16 16 16 16 16 16 16 16
20 20 20 20 19 19 19 19 19 19 19 19 19 18 18 18 18 18 18 18 17 17 17 17 17 17 17 17 17 17 17 17 17 16 16 16 16 16 16 16 15 16 15
20 20 20 19 19 19 19 19 19 19 19 19 18 18 18 18 18 18 18 18 17 17 17 17 17 17 16 16 16 16 16 16 16 16 16 16 16 16 15 15 15 15 15
20 20 19 19 19 19 19 19 19 19 19 19 18 18 18 18 18 18 17 17 17 17 17 17 17 16 16 16 16 16 16 16 16 16 16 16 16 15 15 15 15 15 15
20 20 19 19 19 19 19 19 19 18 18 18 18 18 18 18 18 18 17 17 17 17 17 16 16 16 16 16 16 16 16 16 16 16 16 16 16 15 15 15 15 15 15
19 19 19 19 19 19 19 19 19 18 18 18 18 18 18 17 18 17 17 17 17 17 16 16 16 16 16 16 16 16 16 15 15 15 15 15 14 14 14 14 14 14 14
19 19 19 19 19 19 19 18 18 18 18 18 18 17 17 17 17 17 17 17 17 16 16 16 16 16 16 15 16 16 16 15 15 15 15 14 14 14 14 14 14 14 14
19 19 19 19 19 19 18 18 18 18 17 17 17 17 17 17 17 17 17 16 16 16 16 16 15 15 15 15 15 14 14 15 15 14 14 14 14 14 14 13 13 13 14
19 19 18 18 18 18 18 18 18 17 17 17 17 17 16 17 16 16 16 16 16 16 16 15 15 15 15 15 14 14 14 14 14 14 14 14 14 14 14 13 13 13 14
18 18 18 18 18 18 18 18 17 17 17 17 16 16 16 16 16 16 16 16 15 15 15 15 15 15 14 14 14 13 13 13 13 13 13 13 13 13 13 13 13 13 13
18 18 18 18 18 18 17 17 17 17 17 16 16 16 16 16 16 16 16 15 15 15 15 14 14 14 14 14 13 13 13 13 13 13 13 13 13 13 13 12 12 12 12
17 17 17 17 17 17 17 17 16 16 16 16 16 15 15 15 15 15 15 15 15 14 14 14 14 14 14 13 13 13 13 13 12 12 13 13 13 12 12 12 12 12 12
17 17 17 17 17 16 16 16 16 16 15 15 15 15 15 15 15 15 15 14 14 14 14 13 13 13 13 13 13 12 12 12 12 12 12 12 12 12 12 11 11 11 11
17 16 16 16 16 16 15 15 15 15 15 15 15 15 15 15 15 14 14 14 14 13 13 13 12 12 12 12 12 12 11 11 11 11 12 12 12 11 11 11 11 11 11
16 16 16 16 15 15 15 15 15 15 15 15 15 14 14 14 14 14 14 13 13 13 12 12 12 11 11 11 11 11 11 11 11 11 11 11 11 11 11 11 10 11 11
16 15 15 15 15 15 15 15 14 14 14 14 14 14 13 13 13 13 13 13 13 12 12 11 11 11 11 11 11 11 10 10 10 10 10 10 10 10 10 10 10 10 10
15 15 15 15 15 15 14 14 14 14 14 14 13 13 13 13 13 13 12 12 12 12 11 11 11 11 10 10 10 10 10 10 10 10 10 10 10 10 10 10 10 10 9
15 14 14 14 14 14 14 14 13 13 13 13 13 13 12 12 12 12 12 12 11 11 11 11 10 10 10 10 10 10 10 10 10 9 9 9 9 9 9 9 9 9 9
14 14 14 14 14 13 13 13 13 13 13 12 12 12 12 12 12 12 11 11 11 11 10 10 10 10 10 10 10 9 9 9 9 9 9 9 9 9 9 9 9 9 9
14 13 13 13 13 13 13 13 13 12 12 12 12 12 12 11 11 11 11 10 10 10 10 10 10 10 9 9 9 9 9 9 9 9 9 8 8 8 8 8 8 8 8
13 13 13 13 13 12 12 12 12 12 12 12 12 11 11 11 11 11 11 10 10 10 10 9 9 9 9 9 9 9 8 8 8 8 8 8 8 8 8 8 8 8 8
13 12 12 12 12 12 12 12 12 12 11 11 11 11 10 10 10 10 10 10 9 9 9 9 9 9 9 8 8 8 8 8 8 8 8 8 8 8 8 8 7 7 7
12 12 12 12 11 11 11 11 11 11 11 11 10 10 10 10 9 9 9 9 9 9 8 8 8 8 8 8 8 8 7 7 7 7 7 7 7 7 7 7 7 7 7
11 11 11 11 11 11 11 11 10 10 10 10 10 10 9 9 9 9 9 9 8 8 8 8 8 8 7 7 7 7 7 7 7 7 7 7 7 7 7 7 7 7 7
11 11 11 11 11 10 10 10 10 10 10 9 9 9 9 9 9 9 8 8 8 8 8 7 7 7 7 7 7 7 7 7 7 7 6 6 6 6 6 6 6 6 6
10 10 10 10 10 10 10 10 9 9 9 9 9 9 9 9 8 8 8 8 8 7 7 7 7 7 6 6 6 6 6 6 6 6 6 6 6 6 6 6 6 6 6
Wind_Speed
9 8 7 7 7 7 6 5 5 4 4 4 4 4 4 3 4 4 4 4 4 4 3 4 4 4 4 3 3 4 4 4 5 5 4 3 3 4 3 4 5 5 5
9 9 8 7 7 7 6 6 5 5 5 5 5 4 4 4 4 4 5 5 5 4 4 4 4 3 4 4 4 4 4 4 5 6 5 4 4 4 4 5 5 5 5
8 8 8 8 7 7 7 6 6 6 5 5 5 5 4 4 4 4 4 4 5 4 4 4 4 4 4 4 5 5 5 5 5 6 6 4 4 4 4 5 5 5 6
8 8 8 8 7 7 7 6 6 6 6 5 5 5 5 4 4 4 4 4 4 4 4 4 4 4 5 5 5 5 5 6 6 7 6 5 4 4 4 5 4 4 5
7 8 7 7 7 7 6 6 6 6 6 6 5 5 5 5 4 4 4 4 4 4 4 4 4 3 4 5 5 5 5 6 6 6 6 6 5 4 4 5 6 5 5
7 7 7 7 7 7 6 6 6 6 5 5 6 5 5 4 3 3 4 4 4 4 4 4 4 2 2 3 4 4 5 6 6 6 6 6 6 5 5 6 6 6 6
7 7 6 7 7 7 7 6 6 6 6 6 6 5 5 4 4 4 4 4 4 4 4 4 4 3 3 4 3 4 4 5 6 7 7 7 6 5 6 7 6 7 7
6 6 6 6 6 6 6 6 6 6 6 5 5 5 5 4 6 6 6 5 5 4 4 4 4 4 4 4 4 4 5 4 4 5 6 7 6 5 6 7 8 7 7
5 5 5 5 5 6 6 6 6 6 5 5 5 5 5 4 5 7 6 5 5 5 5 5 5 4 2 3 4 4 5 5 3 2 3 5 5 5 5 6 6 6 7
4 4 4 5 5 6 6 5 4 5 5 5 5 5 5 4 5 6 7 5 5 5 4 4 3 3 2 3 4 4 5 5 5 3 3 4 4 4 5 5 6 6 6
4 4 4 5 5 6 5 5 4 4 4 5 4 4 4 4 5 6 6 5 4 4 4 4 2 3 3 4 5 4 4 6 5 5 4 4 3 3 3 3 4 5 6
4 4 4 5 5 4 4 5 5 5 5 5 4 4 3 4 4 6 6 5 4 4 4 3 2 4 3 4 3 3 5 6 5 4 4 4 4 3 3 3 4 4 5
4 4 4 4 3 3 4 4 4 5 4 4 4 4 3 3 3 5 7 5 4 4 3 0 1 3 3 4 3 4 5 4 4 4 4 4 4 4 4 3 3 4 5
3 3 3 3 3 3 3 3 3 3 3 4 4 4 3 3 3 3 3 3 4 3 2 3 5 5 5 3 3 4 4 4 4 5 5 4 4 4 4 4 4 4 4
3 3 3 3 2 3 2 1 2 2 2 3 3 3 4 4 3 2 3 3 2 2 2 2 2 2 2 3 3 3 4 3 4 4 5 4 4 4 4 4 4 4 4
3 3 3 3 3 3 2 1 3 1 2 1 2 2 2 1 3 3 2 2 2 3 3 3 3 3 4 3 3 3 3 3 4 4 4 4 4 4 4 4 4 4 5
3 3 3 3 3 3 3 3 2 1 3 2 2 2 2 4 4 4 3 3 5 5 4 3 3 4 4 4 4 4 4 3 3 4 4 4 4 4 4 4 4 4 5
3 2 3 3 2 2 3 3 3 3 2 1 1 3 5 6 6 5 5 4 3 4 4 4 4 4 4 4 5 5 4 3 3 4 4 4 4 5 5 5 4 5 5
2 2 2 2 2 2 2 2 2 3 3 2 1 1 3 4 5 5 6 4 4 4 4 4 4 4 4 4 5 4 4 4 4 4 4 4 4 5 5 5 5 5 6
1 0 1 2 2 2 2 2 2 2 2 2 2 1 2 2 2 3 4 3 4 4 4 4 4 4 4 4 4 4 4 4 4 4 3 4 4 4 5 6 5 5 5
1 1 1 2 2 1 1 1 2 2 2 2 2 2 1 3 2 2 2 3 3 3 3 3 3 3 3 3 3 4 4 4 3 4 4 4 5 4 5 5 5 5 5
1 1 1 1 1 1 1 1 1 1 1 1 1 2 4 3 2 2 2 2 2 2 2 2 2 2 2 3 3 3 3 4 4 4 4 5 4 5 5 4 4 5 5
1 1 1 1 1 1 2 1 1 1 1 1 1 2 2 2 2 1 2 2 2 1 2 2 2 2 2 2 2 3 3 3 4 4 5 5 5 5 4 4 5 5 5
0 0 1 1 1 1 1 1 1 1 1 1 1 1 2 2 1 1 1 1 1 1 1 2 2 2 2 3 3 3 3 4 4 4 5 5 5 4 4 4 5 5 5
0 1 1 1 1 1 1 0 1 1 1 1 1 1 1 1 1 1 1 1 1 1 2 2 1 1 2 3 3 4 4 3 4 5 4 4 4 4 4 5 4 5 5
1 1 1 1 2 1 1 1 1 1 1 1 1 1 1 0 0 0 0 1 1 1 1 1 1 2 3 3 3 4 3 3 4 6 5 3 3 3 4 4 4 4 4
Wind_Direction
190 190 194 192 195 199 205 208 208 209 203 208 209 213 218 217 214 216 227 222 228 235 239 240 252 272 277 277 275 272 272 273 275 286 296 288 267 275 272 257 243 237 215
188 188 192 192 195 200 205 207 203 204 206 205 208 211 216 216 219 223 232 230 230 232 238 243 253 254 260 272 275 274 274 276 278 285 289 286 273 264 267 265 260 249 249
185 188 192 196 198 204 209 207 204 204 209 212 215 218 222 222 222 225 230 232 232 234 237 242 249 256 262 271 274 277 277 276 277 278 281 287 283 275 268 261 261 264 260
186 190 195 199 201 204 206 205 206 207 208 210 212 215 219 222 222 220 217 224 230 234 242 248 250 255 261 267 267 272 278 279 273 273 276 277 277 275 271 273 269 258 263
191 197 198 198 199 204 205 206 205 209 213 211 213 213 212 216 222 216 216 220 226 233 242 252 255 267 297 284 282 280 279 276 276 275 277 280 281 286 281 279 279 280 269
197 203 198 198 200 204 205 206 207 211 217 216 217 215 216 225 179 189 217 212 219 230 238 250 252 237 247 247 271 284 290 279 284 284 279 280 282 283 286 282 284 285 283
198 203 201 202 205 204 206 206 208 210 213 216 216 217 220 220 166 179 209 215 223 233 238 247 257 255 252 265 248 234 249 253 265 275 283 285 284 288 290 280 277 279 283
198 203 206 208 206 204 206 209 210 210 215 219 219 220 222 214 180 188 204 216 229 231 233 240 248 258 263 272 273 281 281 278 268 264 271 280 287 292 278 275 276 270 267
201 205 205 207 207 207 211 212 212 210 213 218 221 222 221 210 188 192 205 217 223 226 229 233 238 243 259 277 267 276 285 290 276 253 260 269 290 292 288 279 277 273 276
204 205 204 206 207 206 209 209 206 206 212 221 221 219 217 211 182 185 206 220 222 226 225 226 221 229 212 233 249 261 274 287 294 290 259 249 261 259 247 268 280 275 280
207 206 208 211 213 211 206 205 204 207 211 219 217 214 205 197 180 182 208 228 231 236 242 241 225 170 203 234 255 263 275 279 279 278 276 276 273 273 274 277 288 283 282
207 210 216 216 219 212 207 209 209 208 207 211 208 211 205 192 189 194 203 223 253 238 248 251 218 165 209 232 251 277 275 273 273 278 283 286 289 290 294 293 290 285 281
209 211 212 212 214 211 210 212 213 210 216 218 213 216 214 206 194 184 187 195 218 233 246 167 164 186 220 228 224 244 256 268 277 277 278 282 291 303 299 291 283 272 266
216 216 207 204 204 202 210 218 221 222 226 227 226 226 219 210 209 207 195 182 185 207 212 166 181 202 226 244 241 250 261 272 274 275 281 287 290 289 287 294 294 289 282
216 221 219 213 197 195 205 229 226 241 244 240 237 233 225 225 214 184 201 205 214 197 198 210 217 216 234 246 252 260 270 270 268 272 277 278 281 285 287 290 293 297 294
207 211 224 220 203 204 191 177 47 55 99 96 359 276 248 209 157 164 167 150 147 166 197 217 228 231 237 245 250 251 256 266 271 271 271 274 275 277 282 286 290 293 296
212 222 234 226 214 216 212 209 202 75 91 120 161 205 197 172 169 177 168 160 173 185 212 224 232 240 247 251 256 261 261 262 272 274 277 278 280 281 282 285 287 291 294
220 217 235 236 226 219 220 229 221 216 218 229 170 168 177 178 180 180 169 165 194 207 231 236 239 239 244 253 259 264 270 271 271 275 277 278 277 279 281 283 287 294 291
222 222 238 252 242 229 221 228 225 221 216 207 211 166 162 164 171 178 181 204 219 232 247 249 249 249 248 254 262 265 269 272 275 277 278 281 283 283 285 287 286 286 284
240 80 259 243 235 226 222 228 235 223 212 204 199 188 168 181 192 191 205 222 235 242 251 254 256 261 259 259 262 264 267 272 276 277 282 281 280 280 281 284 286 288 290
226 201 221 248 239 222 213 216 224 227 224 211 198 144 187 212 209 207 218 226 244 249 252 260 260 257 260 265 269 268 272 272 273 277 281 280 279 279 281 283 285 283 285
206 220 210 212 240 227 216 220 224 223 213 209 185 160 186 219 219 217 225 239 255 274 276 267 267 272 274 268 269 272 276 282 282 280 278 279 279 277 274 275 280 285 285
179 187 179 152 168 178 210 216 213 214 203 191 174 167 182 215 224 220 233 248 261 278 299 300 295 301 312 300 291 288 288 288 284 283 283 280 277 273 275 281 284 283 280
195 179 154 137 159 201 222 233 191 171 161 152 172 174 178 200 219 226 245 253 262 284 292 289 294 315 327 318 313 310 316 311 296 279 282 284 281 278 280 283 284 281 278
58 132 129 133 129 108 84 92 135 146 149 173 186 171 164 190 213 224 251 266 285 298 300 293 298 305 317 321 321 324 349 347 313 294 275 277 277 279 283 286 288 289 283
57 76 89 92 88 84 87 82 109 134 145 142 94 79 66 59 39 23 296 289 288 284 289 293 315 321 317 313 333 358 9 342 308 298 280 272 274 282 286 282 285 289 291
Height
1516 1518 1520 1522 1523 1525 1526 1528 1528 1529 1529 1530 1530 1530 1531 1531 1532 1532 1533 1533 1533 1534 1534 1534 1534 1534 1534 1535 1534 1534 1533 1532 1531 1530 1530 1528 1526 1524 1523 1522 1521 1520 1519
1513 1515 1517 1519 1521 1523 1524 1525 1526 1526 1527 1527 1528 1528 1528 1529 1529 1530 1530 1531 1531 1531 1532 1532 1532 1532 1531 1531 1531 1531 1530 1529 1529 1527 1526 1525 1523 1522 1520 1519 1518 1517 1516
1511 1513 1515 1517 1518 1520 1521 1522 1523 1523 1524 1525 1525 1525 1526 1526 1527 1527 1527 1528 1528 1528 1529 1529 1529 1529 1528 1528 1528 1528 1528 1527 1525 1524 1523 1522 1520 1519 1517 1516 1515 1513 1513
1509 1511 1512 1514 1515 1517 1518 1519 1520 1521 1521 1521 1522 1523 1523 1524 1524 1524 1524 1525 1525 1525 1526 1526 1526 1526 1526 1525 1525 1524 1524 1523 1522 1521 1520 1519 1517 1516 1514 1514 1512 1511 1510
1506 1508 1510 1511 1512 1514 1515 1516 1517 1518 1518 1519 1519 1519 1520 1521 1521 1521 1521 1522 1522 1522 1522 1523 1523 1523 1522 1522 1523 1522 1521 1520 1519 1518 1517 1515 1514 1512 1512 1510 1510 1508 1507
1503 1505 1507 1508 1509 1511 1512 1513 1514 1514 1515 1515 1516 1516 1516 1518 1518 1518 1518 1519 1519 1519 1519 1519 1520 1519 1519 1518 1518 1517 1517 1516 1515 1514 1513 1512 1510 1509 1508 1507 1506 1505 1503
1500 1502 1504 1505 1506 1507 1509 1510 1510 1511 1511 1511 1512 1512 1513 1514 1514 1515 1515 1515 1516 1516 1516 1516 1517 1517 1515 1515 1514 1513 1512 1511 1511 1510 1509 1508 1507 1506 1504 1503 1502 1501 1499
1497 1499 1500 1501 1503 1503 1504 1505 1506 1507 1507 1507 1508 1508 1509 1510 1510 1511 1512 1512 1512 1512 1512 1512 1512 1512 1511 1511 1510 1509 1508 1507 1506 1506 1504 1503 1503 1502 1500 1500 1498 1496 1495
1494 1495 1497 1498 1499 1500 1501 1501 1502 1503 1504 1504 1505 1505 1505 1506 1506 1507 1508 1508 1508 1508 1508 1508 1507 1507 1507 1506 1506 1505 1504 1503 1503 1501 1500 1499 1498 1497 1496 1496 1494 1494 1492
1491 1492 1493 1494 1495 1496 1497 1498 1498 1499 1500 1501 1501 1501 1501 1501 1502 1503 1503 1504 1504 1504 1504 1503 1503 1502 1502 1502 1501 1501 1499 1499 1499 1498 1497 1495 1494 1493 1492 1491 1491 1490 1488
1488 1489 1490 1491 1492 1493 1493 1494 1495 1495 1496 1497 1497 1498 1497 1497 1498 1498 1499 1500 1500 1500 1500 1499 1498 1498 1498 1497 1497 1496 1495 1495 1495 1494 1494 1493 1491 1490 1489 1488 1486 1485 1484
1485 1485 1486 1487 1489 1490 1490 1490 1491 1491 1492 1493 1493 1494 1494 1493 1493 1493 1494 1495 1495 1495 1495 1495 1494 1494 1494 1493 1493 1492 1492 1492 1492 1491 1490 1489 1488 1487 1485 1484 1482 1481 1479
1481 1482 1483 1484 1484 1485 1486 1486 1487 1488 1489 1489 1489 1490 1490 1490 1489 1490 1490 1490 1490 1491 1491 1490 1490 1489 1489 1490 1489 1488 1488 1488 1488 1487 1487 1486 1485 1483 1482 1480 1478 1477 1475
1478 1478 1479 1480 1480 1481 1482 1483 1483 1483 1484 1485 1485 1485 1486 1485 1485 1486 1485 1485 1486 1486 1486 1486 1486 1485 1486 1485 1485 1485 1485 1485 1484 1484 1483 1482 1481 1480 1479 1477 1476 1474 1473
1475 1476 1477 1477 1477 1478 1478 1479 1479 1479 1480 1481 1481 1481 1481 1481 1481 1481 1481 1481 1482 1482 1482 1483 1483 1483 1482 1482 1482 1482 1482 1481 1480 1480 1479 1478 1477 1476 1475 1474 1472 1471 1470
1471 1472 1474 1474 1474 1475 1475 1475 1475 1476 1476 1476 1477 1478 1477 1478 1477 1477 1477 1477 1478 1478 1479 1479 1479 1479 1480 1479 1479 1479 1478 1478 1477 1476 1475 1475 1473 1472 1471 1470 1469 1468 1466
1468 1470 1471 1472 1471 1472 1472 1472 1472 1472 1472 1472 1473 1473 1473 1473 1473 1473 1473 1473 1474 1475 1476 1476 1476 1477 1477 1477 1476 1476 1475 1474 1473 1473 1472 1471 1470 1469 1468 1467 1466 1464 1463
1466 1467 1468 1468 1468 1468 1469 1469 1469 1469 1469 1469 1469 1469 1470 1470 1470 1470 1470 1471 1471 1472 1472 1473 1473 1473 1473 1473 1473 1473 1472 1471 1470 1469 1468 1467 1466 1466 1465 1464 1462 1461 1460
1464 1465 1465 1465 1466 1466 1466 1466 1467 1466 1467 1466 1466 1466 1467 1467 1467 1467 1467 1468 1468 1468 1469 1469 1470 1469 1469 1469 1469 1468 1468 1467 1466 1465 1464 1463 1463 1462 1461 1460 1459 1457 1457
1461 1461 1462 1462 1463 1463 1463 1464 1464 1464 1464 1464 1464 1463 1464 1464 1464 1464 1464 1465 1465 1465 1465 1465 1466 1465 1465 1465 1464 1464 1463 1463 1462 1461 1460 1460 1459 1458 1457 1456 1456 1454 1453
1459 1459 1459 1460 1460 1460 1461 1461 1461 1461 1461 1461 1461 1461 1461 1461 1462 1462 1462 1462 1462 1462 1462 1462 1462 1461 1461 1461 1460 1460 1459 1459 1458 1457 1457 1456 1455 1454 1454 1453 1452 1451 1450
1457 1457 1457 1457 1458 1458 1458 1458 1458 1458 1458 1458 1458 1458 1458 1459 1460 1460 1460 1460 1460 1460 1460 1459 1459 1459 1458 1457 1457 1457 1456 1455 1454 1454 1453 1453 1452 1451 1450 1449 1448 1448 1447
1455 1455 1455 1455 1455 1455 1456 1455 1455 1455 1455 1455 1456 1456 1456 1457 1457 1457 1457 1458 1457 1457 1457 1456 1456 1455 1455 1454 1454 1454 1453 1452 1451 1450 1449 1449 1449 1448 1448 1446 1445 1444 1443
1454 1454 1454 1454 1454 1454 1454 1453 1453 1453 1453 1453 1453 1454 1454 1455 1455 1455 1455 1455 1455 1455 1455 1454 1453 1453 1452 1451 1451 1451 1450 1449 1448 1447 1446 1446 1445 1445 1444 1443 1442 1441 1440
1453 1452 1452 1452 1452 1452 1452 1452 1451 1451 1451 1452 1452 1452 1453 1453 1454 1454 1454 1453 1453 1453 1452 1452 1451 1451 1450 1449 1448 1448 1447 1446 1444 1444 1443 1443 1442 1442 1441 1440 1440 1439 1438
1452 1452 1451 1451 1451 1451 1451 1450 1450 1450 1450 1451 1451 1451 1452 1452 1453 1452 1452 1452 1451 1451 1450 1450 1449 1448 1448 1447 1446 1445 1444 1443 1442 1441 1441 1440 1439 1438 1438 1438 1437 1437 1436